When you browse on this site, cookies collect data to enhance your experience and personalize the content and advertising you see.
Visit our Privacy Policy to learn more. By continuing to use the site, you agree to this use of cookies and data.
  • Em Portugal
  • Lista de países
  • Para 7 dias
  • Temperatura da água
  • Mapas de satélite
  • Mapa do tempo
  • Widgets de tempo
  • user-avatar
    Iniciar Sessão

    Previsão horária em Malinowka

    Hoje, 26 Junho, Quarta-feira

    Tempo Temperatura Precipitação Vento Pressão Humidade
    00:00 +20°C° 0 mm 2 m/s 754 mmHg 86%
    01:00 +20°C° 0 mm 2 m/s 754 mmHg 88%
    02:00 +19°C° 0 mm 3 m/s 753 mmHg 85%
    03:00 +19°C° 0 mm 3 m/s 753 mmHg 85%
    04:00 +19°C° 0 mm 3 m/s 753 mmHg 85%
    05:00 +19°C° 0 mm 3 m/s 752 mmHg 84%
    06:00 +21°C° 0 mm 3 m/s 752 mmHg 84%
    07:00 +22°C° 0 mm 4 m/s 752 mmHg 83%
    08:00 +23°C° 0 mm 4 m/s 752 mmHg 82%
    09:00 +25°C° 0.2 mm 4 m/s 751 mmHg 80%
    10:00 +27°C° 0.2 mm 4 m/s 751 mmHg 77%
    11:00 +29°C° 0.2 mm 4 m/s 750 mmHg 74%
    12:00 +30°C° 0.3 mm 4 m/s 750 mmHg 70%
    13:00 +32°C° 0.3 mm 5 m/s 750 mmHg 66%
    14:00 +32°C° 0.3 mm 5 m/s 749 mmHg 62%
    15:00 +32°C° 0.3 mm 4 m/s 749 mmHg 65%
    16:00 +32°C° 0.3 mm 4 m/s 748 mmHg 69%
    17:00 +30°C° 0.3 mm 3 m/s 747 mmHg 72%
    18:00 +29°C° 0.9 mm 3 m/s 747 mmHg 76%
    19:00 +27°C° 0.9 mm 3 m/s 746 mmHg 80%
    20:00 +26°C° 0.9 mm 2 m/s 746 mmHg 84%
    21:00 +25°C° 0.7 mm 3 m/s 745 mmHg 87%
    22:00 +24°C° 0.7 mm 3 m/s 745 mmHg 89%
    23:00 +22°C° 0.7 mm 3 m/s 744 mmHg 92%

    Amanhã, 27 Junho, Quinta-feira

    Tempo Temperatura Precipitação Vento Pressão Humidade
    00:00 +22°C° 0 mm 4 m/s 744 mmHg 93%
    01:00 +21°C° 0 mm 4 m/s 744 mmHg 94%
    02:00 +21°C° 0 mm 4 m/s 743 mmHg 96%
    03:00 +20°C° 0 mm 5 m/s 743 mmHg 95%
    04:00 +19°C° 0 mm 6 m/s 743 mmHg 95%
    05:00 +17°C° 0 mm 7 m/s 742 mmHg 95%
    06:00 +17°C° 0.1 mm 7 m/s 743 mmHg 94%
    07:00 +17°C° 0.1 mm 7 m/s 743 mmHg 93%
    08:00 +17°C° 0.1 mm 7 m/s 743 mmHg 92%
    09:00 +18°C° 0.1 mm 7 m/s 743 mmHg 86%
    10:00 +20°C° 0.1 mm 8 m/s 743 mmHg 79%
    11:00 +21°C° 0.1 mm 8 m/s 743 mmHg 73%
    12:00 +21°C° 0.3 mm 8 m/s 744 mmHg 74%
    13:00 +21°C° 0.3 mm 8 m/s 744 mmHg 74%
    14:00 +21°C° 0.3 mm 8 m/s 744 mmHg 75%
    15:00 +20°C° 0.1 mm 8 m/s 744 mmHg 74%
    16:00 +20°C° 0.1 mm 8 m/s 744 mmHg 72%
    17:00 +18°C° 0.1 mm 7 m/s 744 mmHg 71%
    18:00 +17°C° 0 mm 7 m/s 744 mmHg 71%
    19:00 +16°C° 0 mm 7 m/s 745 mmHg 72%
    20:00 +15°C° 0 mm 7 m/s 745 mmHg 72%
    21:00 +14°C° 0 mm 6 m/s 745 mmHg 72%
    22:00 +13°C° 0 mm 6 m/s 746 mmHg 72%
    23:00 +11°C° 0 mm 6 m/s 746 mmHg 72%

    Depois de amanhã, 28 Junho, Sexta-feira

    Tempo Temperatura Precipitação Vento Pressão Humidade
    00:00 +11°C° 0 mm 6 m/s 746 mmHg 72%
    01:00 +11°C° 0 mm 6 m/s 746 mmHg 71%
    02:00 +10°C° 0 mm 6 m/s 747 mmHg 71%
    03:00 +10°C° 0 mm 5 m/s 746 mmHg 75%
    04:00 +10°C° 0 mm 5 m/s 746 mmHg 79%
    05:00 +10°C° 0 mm 5 m/s 746 mmHg 82%
    06:00 +11°C° 0 mm 6 m/s 746 mmHg 76%
    07:00 +14°C° 0 mm 7 m/s 747 mmHg 69%
    08:00 +15°C° 0 mm 8 m/s 747 mmHg 63%
    09:00 +16°C° 0 mm 8 m/s 747 mmHg 61%
    10:00 +16°C° 0 mm 8 m/s 747 mmHg 59%
    11:00 +17°C° 0 mm 8 m/s 747 mmHg 57%
    12:00 +17°C° 0 mm 8 m/s 747 mmHg 57%
    13:00 +18°C° 0 mm 8 m/s 747 mmHg 57%
    14:00 +18°C° 0 mm 8 m/s 747 mmHg 58%
    15:00 +18°C° 0 mm 7 m/s 747 mmHg 59%
    16:00 +18°C° 0 mm 7 m/s 747 mmHg 61%
    17:00 +17°C° 0 mm 7 m/s 747 mmHg 62%
    18:00 +16°C° 0 mm 7 m/s 747 mmHg 66%
    19:00 +15°C° 0 mm 6 m/s 747 mmHg 71%
    20:00 +14°C° 0 mm 6 m/s 748 mmHg 75%
    21:00 +13°C° 0 mm 5 m/s 748 mmHg 76%
    22:00 +12°C° 0 mm 5 m/s 748 mmHg 78%
    23:00 +11°C° 0 mm 4 m/s 748 mmHg 80%

    29 Junho, Sábado

    Tempo Temperatura Precipitação Vento Pressão Humidade
    00:00 +10°C° 0 mm 4 m/s 748 mmHg 81%
    01:00 +8°C° 0 mm 4 m/s 748 mmHg 82%
    02:00 +7°C° 0 mm 4 m/s 748 mmHg 83%
    03:00 +8°C° 0 mm 4 m/s 748 mmHg 83%
    04:00 +8°C° 0 mm 4 m/s 748 mmHg 82%
    05:00 +8°C° 0 mm 4 m/s 748 mmHg 82%
    06:00 +10°C° 0 mm 5 m/s 749 mmHg 78%
    07:00 +13°C° 0 mm 5 m/s 749 mmHg 74%
    08:00 +14°C° 0 mm 6 m/s 749 mmHg 70%
    09:00 +16°C° 0.1 mm 6 m/s 749 mmHg 69%
    10:00 +17°C° 0.1 mm 7 m/s 749 mmHg 67%
    11:00 +18°C° 0.1 mm 7 m/s 749 mmHg 65%
    12:00 +18°C° 0 mm 7 m/s 748 mmHg 64%
    13:00 +18°C° 0 mm 7 m/s 748 mmHg 63%
    14:00 +20°C° 0 mm 6 m/s 748 mmHg 63%
    15:00 +20°C° 0 mm 6 m/s 748 mmHg 63%
    16:00 +21°C° 0 mm 6 m/s 748 mmHg 63%
    17:00 +22°C° 0 mm 6 m/s 747 mmHg 63%
    18:00 +20°C° 0 mm 5 m/s 747 mmHg 68%
    19:00 +19°C° 0 mm 5 m/s 747 mmHg 73%
    20:00 +18°C° 0 mm 4 m/s 747 mmHg 78%
    21:00 +15°C° 0 mm 4 m/s 747 mmHg 83%
    22:00 +14°C° 0 mm 3 m/s 748 mmHg 89%
    23:00 +14°C° 0 mm 2 m/s 748 mmHg 94%

    30 Junho, Domingo

    Tempo Temperatura Precipitação Vento Pressão Humidade
    00:00 +13°C° 0 mm 2 m/s 748 mmHg 94%
    01:00 +13°C° 0 mm 2 m/s 748 mmHg 95%
    02:00 +13°C° 0 mm 2 m/s 748 mmHg 95%
    03:00 +13°C° 0 mm 2 m/s 748 mmHg 95%
    04:00 +13°C° 0 mm 2 m/s 748 mmHg 94%
    05:00 +13°C° 0 mm 2 m/s 748 mmHg 94%
    06:00 +15°C° 0 mm 2 m/s 748 mmHg 88%
    07:00 +17°C° 0 mm 2 m/s 748 mmHg 83%
    08:00 +19°C° 0 mm 3 m/s 748 mmHg 78%
    09:00 +20°C° 0 mm 3 m/s 748 mmHg 73%
    10:00 +22°C° 0 mm 3 m/s 748 mmHg 68%
    11:00 +25°C° 0 mm 3 m/s 748 mmHg 64%
    12:00 +26°C° 0 mm 4 m/s 748 mmHg 61%
    13:00 +27°C° 0 mm 4 m/s 747 mmHg 59%
    14:00 +28°C° 0 mm 4 m/s 747 mmHg 56%
    15:00 +28°C° 0 mm 4 m/s 747 mmHg 59%
    16:00 +28°C° 0 mm 4 m/s 746 mmHg 61%
    17:00 +28°C° 0 mm 4 m/s 746 mmHg 63%
    18:00 +27°C° 0 mm 4 m/s 745 mmHg 68%
    19:00 +25°C° 0 mm 4 m/s 745 mmHg 73%
    20:00 +23°C° 0 mm 4 m/s 745 mmHg 78%
    21:00 +22°C° 0 mm 4 m/s 744 mmHg 78%
    22:00 +21°C° 0 mm 4 m/s 744 mmHg 78%
    23:00 +20°C° 0 mm 4 m/s 744 mmHg 78%

    1 Julho, Segunda-feira

    Tempo Temperatura Precipitação Vento Pressão Humidade
    00:00 +20°C° 0 mm 4 m/s 744 mmHg 77%
    01:00 +19°C° 0 mm 4 m/s 743 mmHg 77%
    02:00 +19°C° 0 mm 4 m/s 743 mmHg 76%
    03:00 +19°C° 0 mm 4 m/s 743 mmHg 80%
    04:00 +18°C° 0 mm 4 m/s 743 mmHg 85%
    05:00 +18°C° 0 mm 4 m/s 743 mmHg 89%
    06:00 +19°C° 0 mm 4 m/s 743 mmHg 85%
    07:00 +20°C° 0 mm 4 m/s 743 mmHg 81%
    08:00 +21°C° 0 mm 5 m/s 743 mmHg 77%
    09:00 +21°C° 0 mm 5 m/s 743 mmHg 73%
    10:00 +22°C° 0 mm 5 m/s 743 mmHg 69%
    11:00 +22°C° 0 mm 6 m/s 744 mmHg 64%
    12:00 +23°C° 0 mm 5 m/s 744 mmHg 64%
    13:00 +23°C° 0 mm 5 m/s 744 mmHg 63%
    14:00 +23°C° 0 mm 5 m/s 744 mmHg 63%
    15:00 +23°C° 0 mm 5 m/s 744 mmHg 64%
    16:00 +23°C° 0 mm 5 m/s 743 mmHg 66%
    17:00 +22°C° 0 mm 4 m/s 743 mmHg 67%
    18:00 +21°C° 0 mm 3 m/s 743 mmHg 72%
    19:00 +20°C° 0 mm 2 m/s 743 mmHg 78%
    20:00 +20°C° 0 mm 1 m/s 743 mmHg 83%
    21:00 +19°C° 0 mm 1 m/s 742 mmHg 84%
    22:00 +18°C° 0 mm 1 m/s 742 mmHg 85%
    23:00 +15°C° 0 mm 0 m/s 742 mmHg 86%
    Mostrar mais